Preview of NWS' New Version of Forecast
This preview is not operational and should not be used for support decisions.

Regional Weather Roundup (RWR)

Issued by National Weather Service (NWS)

                            
000
ASUS45 KBOI 220510
RWRID 

IDAHO REGIONAL WEATHER ROUNDUP
NATIONAL WEATHER SERVICE BOISE ID
1100 PM MDT SAT SEP 21 2019

NOTE: "FAIR" INDICATES FEW OR NO CLOUDS BELOW 12000 FEET
WITH NO SIGNIFICANT WEATHER AND/OR OBSTRUCTIONS TO VISIBILITY

IDZ012-014-220600-
SOUTHWEST IDAHO

  
CITY           SKY/WX    TMP DP  RH WIND       PRES   REMARKS
BOISE          CLEAR     55  41  59 SE8       30.06S                  
CALDWELL       CLEAR     54  46  74 CALM      30.06S                  
MOUNTAIN HOME  CLEAR     54  38  55 CALM      30.07S                  
$$

IDZ016-017-220600-
SOUTHCENTRAL IDAHO

  
CITY           SKY/WX    TMP DP  RH WIND       PRES   REMARKS
BURLEY         CLEAR     45  37  73 SW8       30.12S                  
JEROME         CLEAR     47  37  68 SE8       30.12S                  
TWIN FALLS     CLEAR     46  36  68 SW8       30.13R                  
$$

IDZ019>023-220600-
SOUTHEAST IDAHO

  
CITY           SKY/WX    TMP DP  RH WIND       PRES   REMARKS
IDAHO FALLS    MOCLDY    50  39  66 SW8       30.14R                  
POCATELLO      CLEAR     50  37  61 S7        30.14S                  
REXBURG        CLOUDY    49  42  77 W3        30.13S                  
$$

IDZ006-010-011-018-031-032-220600-
CENTRAL IDAHO MOUNTAINS

  
CITY           SKY/WX    TMP DP  RH WIND       PRES   REMARKS
MCCALL         CLEAR     45  37  73 CALM      30.12R                  
HAILEY         CLEAR     46  39  76 NW5       30.16R                  
STANLEY          N/A     38  32  79 S3        30.19R                  
SALMON         CLOUDY    51  41  68 CALM      30.11S                  
CHALLIS        CLEAR     49  36  61 CALM      30.12R                  
$$

IDZ002-004-006-007-026-220600-
NORTHERN IDAHO

  
CITY           SKY/WX    TMP DP  RH WIND       PRES   REMARKS
LEWISTON       CLEAR     62  46  55 CALM      29.99R                  
LOWELL           N/A     54  51  90 VRB3      30.07R                  
COEUR D'ALENE  CLEAR     50  44  80 E3        30.02R                  
MULLAN PASS    CLOUDY    45  39  79 SW3       30.11R                  
$$